C/2020 F3 ( NEOWISE )

Japanese version
Home page
Updated on August 11, 2020

---------------------------------------------------------------------

* Profile

Discovery Date March 27, 2020
Magnitude 17 mag
Discoverer Near-Earth Object Wide-field Infrared Survey Explorer

* Pictures

* Orbital Elements

Epoch 2020 July 10.0 TT = JDT 2459040.5
T 2020 July 3.67902 TT                                  Rudenko
q   0.2946500            (2000.0)            P               Q
z  +0.0027752      Peri.   37.27901     +0.71859959     +0.14387054
 +/-0.0000025      Node    61.01082     +0.28190301     -0.95464070
e   0.9991823      Incl.  128.93741     +0.63572425     +0.26069601
From 774 observations 2020 Mar. 27-Aug. 2, mean residual 0".8.

* Finding Charts

* Magnitudes Graph

        m1 = 3.5 + 5 log d + 30   log r  [   ,-66]  (             - 2020 Apr. 28)
        m1 = 7.0 + 5 log d + 12.0 log r  [-66,   ]  (2020 Apr. 28 -             )

---------------------------------------------------------------------

The orbital elements are published on M.P.E.C. 2020-P19.
The charts are made with StellaNavigator Ver.10 (AstroArts).
The magnitudes graphs are made with Comet for Windows.

---------------------------------------------------------------------

Copyright(C) Seiichi Yoshida (comet@aerith.net). All rights reserved.